Location: Владивосток
(43.1151°N, 131.8856°E)
Time: 08:42:55
(UTC+10:00)

DUCHIFAT 1 - Pass Details

Date: 29 June 2022
Orbit: 579 x 596 km, 98.0° (Epoch: 18 August)

Event Time Altitude Azimuth Distance (km) Brightness Sun altitude
Rises 04:05:04 0° 9° (N) 2,842 ? -13.1°
Reaches altitude 10° 04:07:15 10° 6° (N) 1,938 ? -12.8°
Maximum altitude 04:11:23 61° 286° (WNW) 683 ? -12.3°
Enters shadow 04:14:29 17° 210° (SSW) 1,519 ? -12.0°
